(122282) = 2000 PD14 = 2004 RF51

Discovered at Socorro on 2000-08-01 by LINEAR.

Orbit

Orbit type: Main Belt

Note: WebGL enabled browser required.

epoch2023-09-13.0
epoch JD2460200.5
perihelion date2023-08-27.11062
perihelion JD2460183.61062
argument of perihelion (°)229.80484
ascending node (°)109.96113
inclination (°)3.07429
eccentricity0.2198782
perihelion distance (AU)1.9012034
Tisserand w.r.t. Jupiter3.5
ΔV w.r.t. Earth (km/sec)8.7
semimajor axis (AU)2.4370598
mean anomaly (°)4.37541
mean daily motion (°/day)0.25906250
aphelion distance (AU)2.973
period (years)3.8
P-vector [x]0.93725448
P-vector [y]-0.30136533
P-vector [z]-0.17530822
Q-vector [x]0.34498257
Q-vector [y]0.87433950
Q-vector [z]0.34134655
absolute magnitude16.64
phase slope0.15
uncertainty0
referenceMPEC 2024-B149
observations used670
oppositions17
arc length (days)8605
first opposition used2000
last opposition used2024
residual rms (arc-secs)0.64
perturbers coarse indicatorM-v
perturbers precise indicator003Ek
first observation date used2000-07-07.0
last observation date used2024-01-28.0
computer nameMPCLINUX
JD of orbit computation2456760.690569
perihelion JD uncertainty (days)6.3384E-05
argument of perihelion uncertainty (°)8.7569E-05
ascending node uncertainty (°)8.6775E-05
inclination uncertainty (°)3.2866E-06
eccentricity uncertainty 3.6148E-08
perihelion distance uncertainty (AU)8.4028E-08
Minimum Orbit Intersection Distances (in AU)
for orbit epoch: 2460200.5, reference: E2024-BE9
Mercury1.5057
Venus1.17375
Earth0.89353
Mars0.51972
Jupiter2.41225
Saturn6.28608
Uranus15.4766
Neptune27.4563

Observations

680 total observations over interval: 2000 07 07.31842 – 2024 01 28.252836
These data are available for download (format description).

Date (UT) J2000 RA J2000 Dec Magn Location Ref
2000 07 07.31842 20 34 34.24 -19 20 02.2 18.7   704 – Lincoln Laboratory ETS, New Mexico MPS 17975
2000 07 07.33082 20 34 33.60 -19 20 05.5 19.1   704 – Lincoln Laboratory ETS, New Mexico MPS 17975
2000 07 07.34318 20 34 33.27 -19 20 09.7 18.9   704 – Lincoln Laboratory ETS, New Mexico MPS 17975
2000 07 07.35557 20 34 32.73 -19 20 13.1 18.5   704 – Lincoln Laboratory ETS, New Mexico MPS 17975
2000 08 01.24805 20 14 46.32 -21 32 09.0 18.3   704 – Lincoln Laboratory ETS, New Mexico MPS 17975
2000 08 01.26270 20 14 45.54 -21 32 13.1 18.6   704 – Lincoln Laboratory ETS, New Mexico MPS 17975
2000 08 01.27727 20 14 44.71 -21 32 18.1 18.8   704 – Lincoln Laboratory ETS, New Mexico MPS 17975
2000 08 01.29173 20 14 43.91 -21 32 22.7 19.0   704 – Lincoln Laboratory ETS, New Mexico MPS 17975
2000 08 01.30613 20 14 43.11 -21 32 26.7 19.0   704 – Lincoln Laboratory ETS, New Mexico MPS 17975
2000 08 05.30257 20 11 21.02 -21 52 24.2 19.3   608 – Haleakala-AMOS MPS 17975
2000 08 05.31383 20 11 20.44 -21 52 27.4 19.2   608 – Haleakala-AMOS MPS 17975
2000 08 05.32508 20 11 19.85 -21 52 30.9 19.3   608 – Haleakala-AMOS MPS 17975
2000 08 20.24056 20 01 31.83 -22 51 26.0 18.1 R 699 – Lowell Observatory-LONEOS MPS 17975
2000 08 20.25234 20 01 31.45 -22 51 28.1   699 – Lowell Observatory-LONEOS MPS 17975
2000 08 20.26414 20 01 31.13 -22 51 29.7   699 – Lowell Observatory-LONEOS MPS 17975
2000 08 20.29351 20 01 30.28 -22 51 34.9   699 – Lowell Observatory-LONEOS MPS 17975
2000 09 20.13022 20 05 05.10 -23 13 44.0 19.3   704 – Lincoln Laboratory ETS, New Mexico MPS 19222
2000 09 20.14509 20 05 05.67 -23 13 42.9 19.3   704 – Lincoln Laboratory ETS, New Mexico MPS 19222
2000 09 20.15990 20 05 06.18 -23 13 40.7 18.5   704 – Lincoln Laboratory ETS, New Mexico MPS 19222
2003 03 27.40008 13 05 46.52 -01 57 08.7 20.9 V 691 – Steward Observatory, Kitt Peak-Spacewatch MPS 115182
2003 03 27.42683 13 05 45.12 -01 56 58.5 20.1 V 691 – Steward Observatory, Kitt Peak-Spacewatch MPS 115182
2003 03 27.45333 13 05 43.72 -01 56 49.4 20.5 V 691 – Steward Observatory, Kitt Peak-Spacewatch MPS 115182
2004 08 14.48214 23 54 48.20 -05 27 49.2 18.2   644 – Palomar Mountain/NEAT MPS 114441
2004 08 14.49317 23 54 48.09 -05 27 52.2 18.3   644 – Palomar Mountain/NEAT MPS 114441
2004 08 14.50704 23 54 47.97 -05 27 55.1 18.2   644 – Palomar Mountain/NEAT MPS 114441
2004 08 27.32964 23 50 44.82 -06 35 33.8 18.0 R 699 – Lowell Observatory-LONEOS MPS 114441
2004 08 27.34260 23 50 44.37 -06 35 39.7   699 – Lowell Observatory-LONEOS MPS 114441
2004 08 27.35554 23 50 43.92 -06 35 43.7   699 – Lowell Observatory-LONEOS MPS 114441
2004 08 27.36849 23 50 43.53 -06 35 47.8   699 – Lowell Observatory-LONEOS MPS 114441
2004 09 08.23140 23 43 17.78 -07 52 30.2 18.2   704 – Lincoln Laboratory ETS, New Mexico MPS 112861
2004 09 08.24285 23 43 17.23 -07 52 34.8 18.2   704 – Lincoln Laboratory ETS, New Mexico MPS 112861
2004 09 08.25435 23 43 16.70 -07 52 39.4 19.0   704 – Lincoln Laboratory ETS, New Mexico MPS 112861
2004 09 09.23546 23 42 33.69 -07 59 04.0 18.0   704 – Lincoln Laboratory ETS, New Mexico MPS 112861
2004 09 09.24781 23 42 33.13 -07 59 08.8 18.0   704 – Lincoln Laboratory ETS, New Mexico MPS 112861
2004 09 09.25997 23 42 32.54 -07 59 13.2 18.5   704 – Lincoln Laboratory ETS, New Mexico MPS 112861
2004 09 09.27183 23 42 31.99 -07 59 18.0 18.4   704 – Lincoln Laboratory ETS, New Mexico MPS 112861
2004 09 09.28347 23 42 31.43 -07 59 22.7 18.4   704 – Lincoln Laboratory ETS, New Mexico MPS 112861
2004 09 12.17838 23 40 21.74 -08 18 00.0 18.5   704 – Lincoln Laboratory ETS, New Mexico MPS 113055
2004 09 12.18956 23 40 21.19 -08 18 04.1 18.6   704 – Lincoln Laboratory ETS, New Mexico MPS 113055
2004 09 12.20084 23 40 20.64 -08 18 08.2 18.7   704 – Lincoln Laboratory ETS, New Mexico MPS 113055
2004 09 12.21201 23 40 20.13 -08 18 13.3 18.6   704 – Lincoln Laboratory ETS, New Mexico MPS 113055
2004 09 12.22319 23 40 19.59 -08 18 16.6 18.6   704 – Lincoln Laboratory ETS, New Mexico MPS 113055
2004 09 13.28880 23 39 30.76 -08 25 00.4 17.6 R 699 – Lowell Observatory-LONEOS MPS 120342
2004 09 13.30822 23 39 29.82 -08 25 07.3   699 – Lowell Observatory-LONEOS MPS 120342
2004 09 13.32768 23 39 28.86 -08 25 14.3   699 – Lowell Observatory-LONEOS MPS 120342
2004 09 13.34711 23 39 27.89 -08 25 21.5   699 – Lowell Observatory-LONEOS MPS 120342
2004 09 14.18317 23 38 50.08 -08 30 32.9 17.7 R 699 – Lowell Observatory-LONEOS MPS 120342
2004 09 14.20263 23 38 49.12 -08 30 39.9   699 – Lowell Observatory-LONEOS MPS 120342
2004 09 14.22212 23 38 48.16 -08 30 46.9   699 – Lowell Observatory-LONEOS MPS 120342
2004 09 14.24158 23 38 47.23 -08 30 54.0   699 – Lowell Observatory-LONEOS MPS 120342
2004 09 17.22966 23 36 30.03 -08 48 46.1 18.2   704 – Lincoln Laboratory ETS, New Mexico MPS 113055
2004 09 17.24196 23 36 29.39 -08 48 50.9 18.7   704 – Lincoln Laboratory ETS, New Mexico MPS 113055
2004 09 17.25404 23 36 28.82 -08 48 55.3 18.2   704 – Lincoln Laboratory ETS, New Mexico MPS 113055
2004 09 17.26598 23 36 28.20 -08 48 59.3 18.8   704 – Lincoln Laboratory ETS, New Mexico MPS 113055
2004 09 17.27791 23 36 27.65 -08 49 03.4 18.7   704 – Lincoln Laboratory ETS, New Mexico MPS 113055
2004 09 18.23804 23 35 43.94 -08 54 33.2 18.5   704 – Lincoln Laboratory ETS, New Mexico MPS 114441
2004 09 18.24195 23 35 43.78 -08 54 34.2 18.5   704 – Lincoln Laboratory ETS, New Mexico MPS 114441
2004 09 18.24987 23 35 43.38 -08 54 36.5 18.5   704 – Lincoln Laboratory ETS, New Mexico MPS 114441
2004 09 18.25423 23 35 43.17 -08 54 38.5 18.9   704 – Lincoln Laboratory ETS, New Mexico MPS 114441
2004 09 18.26177 23 35 42.79 -08 54 41.1 18.6   704 – Lincoln Laboratory ETS, New Mexico MPS 114441
2004 09 18.26644 23 35 42.58 -08 54 42.9 18.6   704 – Lincoln Laboratory ETS, New Mexico MPS 114441
2004 09 18.27359 23 35 42.21 -08 54 45.4 18.7   704 – Lincoln Laboratory ETS, New Mexico MPS 114441
2004 09 18.27857 23 35 41.95 -08 54 46.8 19.0   704 – Lincoln Laboratory ETS, New Mexico MPS 114441
2004 09 18.28541 23 35 41.64 -08 54 49.2 19.0   704 – Lincoln Laboratory ETS, New Mexico MPS 114441
2004 09 18.29072 23 35 41.39 -08 54 51.1 19.1   704 – Lincoln Laboratory ETS, New Mexico MPS 114441
2004 09 21.23959 23 33 29.08 -09 10 49.1 18.5   704 – Lincoln Laboratory ETS, New Mexico MPS 114441
2004 09 21.25203 23 33 28.53 -09 10 52.9 18.5   704 – Lincoln Laboratory ETS, New Mexico MPS 114441
2004 09 21.26444 23 33 27.89 -09 10 56.7 18.4   704 – Lincoln Laboratory ETS, New Mexico MPS 114441
2004 09 21.27680 23 33 27.30 -09 11 00.1 18.9   704 – Lincoln Laboratory ETS, New Mexico MPS 114441
2004 09 21.28912 23 33 26.75 -09 11 04.5 18.7   704 – Lincoln Laboratory ETS, New Mexico MPS 114441
2004 10 04.26539 23 25 11.52 -10 00 47.7 18.5   644 – Palomar Mountain/NEAT MPS 117629
2004 10 04.28666 23 25 10.81 -10 00 50.8 18.5   644 – Palomar Mountain/NEAT MPS 117629
2004 10 04.30802 23 25 10.09 -10 00 53.7 18.4   644 – Palomar Mountain/NEAT MPS 117629
2004 10 05.15749 23 24 45.47 -10 02 49.0 18.6 R 699 – Lowell Observatory-LONEOS MPS 115781
2004 10 05.17453 23 24 44.91 -10 02 50.3   699 – Lowell Observatory-LONEOS MPS 115781
2004 10 05.19157 23 24 44.38 -10 02 53.4   699 – Lowell Observatory-LONEOS MPS 115781
2004 10 05.20866 23 24 43.79 -10 02 54.4   699 – Lowell Observatory-LONEOS MPS 115781
2004 10 06.20621 23 24 15.88 -10 04 54.5 18.5   704 – Lincoln Laboratory ETS, New Mexico MPS 115781
2004 10 06.21732 23 24 15.49 -10 04 57.0 19.0   704 – Lincoln Laboratory ETS, New Mexico MPS 115781
2004 10 06.22864 23 24 15.14 -10 04 57.5 18.4   704 – Lincoln Laboratory ETS, New Mexico MPS 115781
2004 10 06.23983 23 24 14.80 -10 05 00.1 18.7   704 – Lincoln Laboratory ETS, New Mexico MPS 115781
2004 10 06.25136 23 24 14.51 -10 05 00.6 18.9   704 – Lincoln Laboratory ETS, New Mexico MPS 115781
2004 10 09.14874 23 23 03.02 -10 09 23.6 19.0   704 – Lincoln Laboratory ETS, New Mexico MPS 116657
2004 10 09.16013 23 23 02.63 -10 09 24.6 19.1   704 – Lincoln Laboratory ETS, New Mexico MPS 116657
2004 10 09.17125 23 23 02.37 -10 09 25.3 19.3   704 – Lincoln Laboratory ETS, New Mexico MPS 116657
